Location: Newark
(27.9675°N, 86.8869°E)
Time: 18:26:01
(UTC+00:00)

Altair - Pass Details

Date: 30 October 2019
Orbit: 1502 x 1682 km, 47.2° (Epoch: 12 November)

Event Time Altitude Azimuth Distance (km) Brightness Sun altitude
Rises 23:45:54 0° 200° (SSW) 4,620 9.9 -8.7°
Reaches altitude 10° 23:49:12 10° 192° (SSW) 3,640 9.5 -8.0°
Maximum altitude 23:57:21 37° 128° (SE) 2,176 9.0 -6.2°
Drops below altitude 10° 00:05:38 10° 65° (ENE) 3,710 10.4 -4.4°
Sets 00:09:00 0° 58° (ENE) 4,718 10.8 -3.7°
